This is the latest recevied weather packets stored in our database for station/object K7DC. If no packets are shown the sender has not sent any weather packets the latest 10 day(s).
| Time | Temp. | Humidity | Pressure | Rain* | Wind** | Luminosity | Snow |
|---|---|---|---|---|---|---|---|
| 1777467143 | 13.89° C | 28% | 1016.3 hPa | 0 mm | - | 5 W/m² | - |
| 1777466235 | 14.44° C | 27% | 1016.1 hPa | 0 mm | - | 1 W/m² | - |
| 1777465930 | 13.89° C | 29% | 1015.9 hPa | 0 mm | - | 1 W/m² | - |
| 1777465627 | 13.89° C | 29% | 1016.1 hPa | 0 mm | - | 0 W/m² | - |
| 1777465323 | 13.89° C | 30% | 1016 hPa | 0 mm | - | 0 W/m² | - |
| 1777465022 | 13.89° C | 29% | 1015.8 hPa | 0 mm | - | 0 W/m² | - |
| 1777464717 | 14.44° C | 28% | 1015.9 hPa | 0 mm | - | 0 W/m² | - |
| 1777464414 | 14.44° C | 28% | 1016.3 hPa | 0 mm | - | 0 W/m² | - |
| 1777463809 | 14.44° C | 28% | 1015.9 hPa | 0 mm | - | 0 W/m² | - |
| 1777463200 | 13.89° C | 30% | 1016 hPa | 0 mm | - | 0 W/m² | - |
| 1777462593 | 13.89° C | 31% | 1016.1 hPa | 0 mm | - | 0 W/m² | - |
| 1777461984 | 13.89° C | 32% | 1016.4 hPa | 0 mm | - | 0 W/m² | - |
| 1777461681 | 13.33° C | 32% | 1016.3 hPa | 0 mm | - | 0 W/m² | - |
| 1777461078 | 13.33° C | 32% | 1016.6 hPa | 0 mm | - | 0 W/m² | - |
| 1777460774 | 13.89° C | 31% | 1016.3 hPa | 0 mm | - | 0 W/m² | - |
| 1777458955 | 13.89° C | 32% | 1016.4 hPa | 0 mm | - | 0 W/m² | - |
| 1777458043 | 13.89° C | 32% | 1016.5 hPa | 0 mm | - | 0 W/m² | - |
| 1777457739 | 13.89° C | 34% | 1016 hPa | 0 mm | - | 0 W/m² | - |
| 1777457434 | 13.89° C | 34% | 1015.9 hPa | 0 mm | - | 0 W/m² | - |
| 1777457129 | 13.89° C | 32% | 1015.9 hPa | 0 mm | - | 0 W/m² | - |
| 1777455615 | 15° C | 30% | 1016.4 hPa | 0 mm | - | 0 W/m² | - |
| 1777455311 | 15° C | 29% | 1016.5 hPa | 0 mm | - | 0 W/m² | - |
| 1777455008 | 15.56° C | 28% | 1016.4 hPa | 0 mm | - | 0 W/m² | - |
| 1777454705 | 15.56° C | 28% | 1016.1 hPa | 0 mm | - | 0 W/m² | - |
| 1777454400 | 15° C | 28% | 1016.3 hPa | 0 mm | - | 0 W/m² | - |
* Rain latest hour (hover to see other rain measurements)
** Current wind speed in m/s (hover to see current wind gust speed)